Date String (YYYY-MM-DD hh:mm:ss) UTC,Instrument flags,Ambient pressure (hPa),Sample flow (lpm),Bypass flow (lpm),Sample temperature (°C),Ambient temperature (°C),ASC tube jacket temperature (°C),LED temperature (°C),Box temperature (°C),Sample RH (%),Span deviation,Mass concentration (μg/m³),Mass concentration (μg/m³),Mass concentration (μg/m³)
DateTimeUTC,F1_M11,P_M11,Q1_M11,Q2_M11,T1_M11,T2_M11,T3_M11,T4_M11,T5_M11,U1_M11,ZSPAN_M11,X0_M11,X2_M11,X1_M11
2021-09-08 08:00:00,,0832.3,5.00,0.00,29.9,26.3,00.0,39.1,31.2,17.3,0001.9,0059.54,0040.01,0036.91
2021-09-08 08:01:00,,0832.3,5.00,0.00,29.8,26.6,00.0,39.0,31.2,17.8,0001.8,0058.88,0039.99,0036.89
2021-09-08 08:02:00,,0832.3,5.00,0.00,29.7,27.0,00.0,39.0,31.2,17.9,0001.8,0057.58,0039.96,0036.90
2021-09-08 08:03:00,,0832.3,5.02,0.00,29.7,27.4,00.0,38.9,31.2,17.9,0001.9,0056.33,0039.90,0036.86
2021-09-08 08:04:00,,0832.3,4.98,0.00,29.7,27.7,00.0,38.9,31.3,17.8,0001.8,0056.60,0039.79,0036.80
2021-09-08 08:05:00,,0832.3,5.01,0.00,29.7,28.0,00.0,38.9,31.3,17.7,0001.7,0057.73,0039.79,0036.78
2021-09-08 08:06:00,,0832.3,4.99,0.00,29.7,28.2,00.0,38.9,31.4,17.5,0001.8,0058.51,0039.71,0036.71
2021-09-08 08:07:00,,0832.3,5.00,0.00,29.7,28.3,00.0,38.9,31.4,17.4,0001.7,0058.72,0039.62,0036.66
2021-09-08 08:08:00,,0832.3,5.00,0.00,29.7,28.5,00.0,38.9,31.5,17.4,0001.9,0058.63,0039.52,0036.63
2021-09-08 08:09:00,,0832.3,5.00,0.00,29.8,28.6,00.0,38.9,31.5,17.6,0001.8,0059.46,0039.47,0036.61
2021-09-08 08:10:00,,0832.4,5.01,0.00,29.8,28.7,00.0,38.9,31.5,17.6,0001.7,0059.18,0039.43,0036.58
2021-09-08 08:11:00,,0832.4,4.99,0.00,29.8,28.7,00.0,38.9,31.6,17.7,0001.5,0059.13,0039.34,0036.50
2021-09-08 08:12:00,,0832.3,5.00,0.00,29.8,28.8,00.0,38.9,31.6,17.8,0001.6,0059.25,0039.26,0036.44
2021-09-08 08:13:00,,0832.3,5.00,0.00,29.9,28.9,00.0,38.9,31.7,17.7,0001.4,0060.12,0039.25,0036.41
2021-09-08 08:14:00,,0832.3,5.00,0.00,29.9,28.9,00.0,38.9,31.7,17.4,0001.3,0060.88,0039.26,0036.43
2021-09-08 08:15:00,,0832.3,5.00,0.00,29.9,29.0,00.0,39.0,31.7,17.0,0001.5,0060.94,0039.25,0036.46
2021-09-08 08:16:00,,0832.3,5.00,0.00,29.9,29.0,00.0,39.0,31.7,17.1,0001.5,0059.95,0039.22,0036.49
2021-09-08 08:17:00,,0832.3,5.01,0.00,30.0,29.0,00.0,39.0,31.8,17.7,0001.3,0059.26,0039.30,0036.55
2021-09-08 08:18:00,,0832.3,5.00,0.00,30.0,29.1,00.0,39.0,31.8,17.7,0001.4,0058.97,0039.36,0036.60
2021-09-08 08:19:00,,0832.3,5.00,0.00,30.0,29.1,00.0,39.0,31.8,17.8,0001.3,0059.97,0039.49,0036.69
2021-09-08 08:20:00,,0832.3,5.00,0.00,30.0,29.2,00.0,39.0,31.8,17.8,0001.3,0059.95,0039.61,0036.73
2021-09-08 08:21:00,,0832.3,5.00,0.00,30.0,29.2,00.0,39.1,31.9,17.8,0001.1,0059.99,0039.72,0036.82
2021-09-08 08:22:00,,0832.3,5.00,0.00,30.1,29.2,00.0,39.1,31.9,17.9,0001.1,0060.05,0039.89,0036.96
2021-09-08 08:23:00,,0832.3,4.99,0.00,30.1,29.2,00.0,39.1,31.9,17.6,0001.3,0059.88,0040.01,0037.12
2021-09-08 08:24:00,,0832.3,5.00,0.00,30.1,29.3,00.0,39.1,31.9,17.4,0001.6,0060.52,0040.10,0037.21
2021-09-08 08:25:00,,0832.3,4.99,0.00,30.1,29.3,00.0,39.1,31.9,17.4,0001.6,0061.56,0040.11,0037.26
2021-09-08 08:26:00,,0832.3,5.01,0.00,30.1,29.3,00.0,39.2,31.9,17.4,0001.6,0060.89,0040.25,0037.35
2021-09-08 08:27:00,,0832.3,4.99,0.00,30.1,29.3,00.0,39.2,32.0,17.2,0001.5,0060.97,0040.43,0037.44
2021-09-08 08:28:00,,0832.3,4.99,0.00,30.2,29.3,00.0,39.2,31.9,17.1,0001.4,0061.89,0040.53,0037.52
2021-09-08 08:29:00,,0832.3,5.00,0.00,30.1,27.5,00.0,39.2,31.5,17.1,0001.4,0063.47,0040.64,0037.57
2021-09-08 08:30:00,,0832.3,5.00,0.00,29.9,26.4,00.0,39.1,31.2,17.1,0001.5,0064.14,0040.72,0037.65
2021-09-08 08:31:00,,0832.3,5.00,0.00,29.8,26.4,00.0,39.1,31.2,17.2,0001.9,0063.55,0040.78,0037.77
2021-09-08 08:32:00,,0832.3,4.99,0.00,29.7,26.8,00.0,39.1,31.2,17.2,0002.2,0064.69,0040.87,0037.84
2021-09-08 08:33:00,,0832.4,5.00,0.00,29.7,27.2,00.0,39.0,31.3,17.3,0002.3,0065.01,0040.91,0037.85
2021-09-08 08:34:00,,0832.4,4.99,0.00,29.7,27.6,00.0,39.0,31.3,17.4,0002.1,0064.80,0040.95,0037.87
2021-09-08 08:35:00,,0832.4,5.01,0.00,29.7,27.8,00.0,39.0,31.4,17.5,0001.8,0063.50,0040.94,0037.89
2021-09-08 08:36:00,,0832.4,4.99,0.00,29.7,28.0,00.0,38.9,31.4,17.5,0001.6,0063.25,0041.06,0037.96
2021-09-08 08:37:00,,0832.3,5.01,0.00,29.7,28.2,00.0,38.9,31.4,17.4,0001.4,0064.01,0041.04,0037.99
2021-09-08 08:38:00,,0832.3,5.00,0.00,29.7,28.3,00.0,38.9,31.5,17.4,0001.4,0063.62,0040.97,0037.99
2021-09-08 08:39:00,,0832.3,5.00,0.00,29.7,28.4,00.0,38.9,31.5,17.3,0001.6,0063.22,0040.94,0038.02
2021-09-08 08:40:00,,0832.4,5.01,0.00,29.7,28.5,00.0,38.9,31.5,17.3,0001.8,0061.55,0040.90,0038.05
2021-09-08 08:41:00,,0832.4,4.99,0.00,29.8,28.6,00.0,38.9,31.5,17.2,0001.9,0060.69,0040.83,0038.00
2021-09-08 08:42:00,,0832.3,5.00,0.00,29.8,28.6,00.0,38.9,31.5,17.2,0001.6,0061.09,0040.76,0037.96
2021-09-08 08:43:00,,0832.3,5.01,0.00,29.8,28.7,00.0,38.9,31.6,17.4,0001.6,0060.23,0040.73,0037.98
2021-09-08 08:44:00,,0832.4,5.01,0.00,29.8,28.7,00.0,38.9,31.6,17.5,0001.7,0060.68,0040.71,0037.96
2021-09-08 08:45:00,,0832.4,5.00,0.00,29.8,28.7,00.0,38.9,31.6,17.6,0001.8,0062.18,0040.74,0037.91
2021-09-08 08:46:00,,0832.4,5.00,0.00,29.8,28.8,00.0,38.9,31.6,17.7,0002.0,0062.85,0040.69,0037.86
2021-09-08 08:47:00,,0832.3,4.99,0.00,29.8,28.8,00.0,38.9,31.6,17.9,0002.0,0061.37,0040.63,0037.79
2021-09-08 08:48:00,,0832.3,5.00,0.00,29.8,28.8,00.0,38.9,31.6,17.9,0002.1,0060.40,0040.61,0037.73
2021-09-08 08:49:00,,0832.3,5.00,0.00,29.8,28.8,00.0,38.9,31.6,17.7,0001.9,0061.33,0040.61,0037.68
2021-09-08 08:50:00,,0832.3,5.01,0.00,29.8,28.9,00.0,38.9,31.6,17.8,0001.7,0061.61,0040.53,0037.59
2021-09-08 08:51:00,,0832.3,5.01,0.00,29.9,28.9,00.0,39.0,31.6,17.9,0001.7,0062.37,0040.45,0037.53
2021-09-08 08:52:00,,0832.3,5.00,0.00,29.9,29.0,00.0,39.0,31.7,18.2,0001.5,0063.01,0040.40,0037.51
2021-09-08 08:53:00,,0832.3,4.99,0.00,29.9,29.0,00.0,39.0,31.7,18.6,0001.5,0062.18,0040.35,0037.46
2021-09-08 08:54:00,,0832.3,5.00,0.00,29.9,29.0,00.0,39.0,31.7,18.6,0001.5,0061.65,0040.27,0037.40
2021-09-08 08:55:00,,0832.3,5.00,0.00,29.9,29.0,00.0,39.0,31.7,18.6,0001.4,0060.89,0040.30,0037.41
2021-09-08 08:56:00,,0832.3,5.00,0.00,29.9,29.1,00.0,39.0,31.7,18.7,0001.3,0060.24,0040.22,0037.41
2021-09-08 08:57:00,,0832.3,5.01,0.00,30.0,29.1,00.0,39.0,31.8,18.7,0001.3,0059.57,0040.24,0037.41
2021-09-08 08:58:00,,0832.3,5.01,0.00,30.0,29.1,00.0,39.0,31.8,18.9,0001.6,0059.96,0040.21,0037.41
2021-09-08 08:59:00,,0832.3,5.00,0.00,30.0,29.1,00.0,39.1,31.7,18.8,0001.9,0060.37,0040.17,0037.38
